User: anonymous   Login
Location: Unspecified
(0.0000°N, 0.0000°E)
Time: 13:48:00
(UTC+00:00)
Language:

SSETI-EXPRESS DEB - Orbit

View from above orbital plane
View from above orbital plane
View from above satellite
View from above satellite

Ground track
Ground track

The orbit data is extracted from the following two-line orbital elements,

1 28897U 05043H   17114.97020553 +.00000363 +00000-0 +78206-4 0  9990
2 28897 097.8560 280.1156 0014935 311.5919 167.6880 14.63813047604828
Epoch (UTC): 24 April 2017 23:17:05
Eccentricity: 0.0014935
inclination: 97.8560°
perigee height: 670 km
apogee height: 691 km
right ascension of ascending node: 280.1156°
argument of perigee: 311.5919°
revolutions per day: 14.63813047
mean anomaly at epoch: 167.6880°
orbit number at epoch: 60482

The dashed part of the orbit path shows where the satellite is in the earth's shadow,  

DLR